Miscellaneous Local Product
Issued by NWS North Platte, NE

Home | Current Version | Previous Version | Text Only | Print | Product List | Glossary On
Versions: 1 2 3 4 5 6 7 8 9 10 11 12 13 14 15 16 17 18 19 20 21 22 23 24 25 26 27 28 29 30 31 32 33 34 35 36 37 38 39 40 41 42 43 44 45 46 47 48 49 50
000
AXUS43 KLBF 170410
MISLBF


WESTERN AND NORTH CENTRAL NEBRASKA HOURLY WEATHER ROUNDUP
NATIONAL WEATHER SERVICE NORTH PLATTE NE
1100 PM CDT WED AUG 16 2017

NOTE: "FAIR" INDICATES FEW OR NO CLOUDS BELOW 12,000 FEET WITH NO
SIGNIFICANT WEATHER AND/OR OBSTRUCTIONS TO VISIBILITY.

NOTE: STATIONS NOT REPORTING VARIABLES SUCH AS SKY/WEATHER OR
PRESSURE ARE PROVIDED BY RAWS AND APRS NETWORKS AND ARE NOT UNDER
NATIONAL WEATHER SERVICE QUALITY CONTROL.

...OBSERVATIONS IN AND NEAR THE EASTERN PANHANDLE OF NEBRASKA...

CITY           SKY/WX    TMP DP  RH WIND       PRES   REMARKS
PINE RIDGE     CLEAR     57  54  89 CALM      30.02S
GORDON         FAIR      55  52  89 CALM      30.03S
CHADRON        CLEAR     61  52  72 CALM      30.02R
ALLIANCE       CLEAR     56  51  84 S5        30.06S
SIDNEY         CLEAR     51  48  89 SW6       30.12R
CRESCENT LAKE    N/A     62  52  71 CALM        N/A
$$

...OBSERVATIONS IN NORTHERN NEBRASKA AND FAR SOUTHERN SOUTH DAKOTA...

CITY           SKY/WX    TMP DP  RH WIND       PRES   REMARKS
WINNER         FAIR      62  56  80 NW7       29.94R
VALENTINE      CLEAR     57  49  74 W6        29.98S
THEDFORD       CLEAR     58  54  85 W3        30.01S
AINSWORTH      CLEAR     58  56  92 W6        29.99R
O`NEILL        CLEAR     63  61  95 NW10      29.91S
ORD            CLEAR     60  57  89 NW5       29.93R
BROKEN BOW     CLEAR     64  57  78 NW9       29.96R
VALENTINE NWR    N/A     58  54  87 NW3         N/A
HALSEY           N/A     60  54  80 NW3         N/A
BUTTE            N/A     62  59  89 NW10        N/A
CHAMBERS         N/A     63  60  91 CALM        N/A
EWING            N/A     64  61  90 W7          N/A
$$

...OBSERVATIONS IN SOUTHWEST NEBRASKA AND FAR NORTHEAST COLORADO...

CITY           SKY/WX    TMP DP  RH WIND       PRES   REMARKS
HOLYOKE        FAIR      61  55  82 CALM      30.09R
IMPERIAL       CLEAR     62  54  74 NW3       30.05S
OGALLALA       CLEAR     57  55  91 CALM      30.05S
NORTH PLATTE   CLEAR     56  55  97 NW3       30.01R
MCCOOK         CLEAR     63  60  90 NW8       30.00S
LEXINGTON      CLEAR     60  58  92 W3        29.98R
STAPLETON        N/A     57  53  86 CALM        N/A
GOTHENBURG       N/A     64  56  77 CALM        N/A
CALLAWAY         N/A     59  56  91 NW3         N/A
$$

...OBSERVATIONS IN CENTRAL LINCOLN COUNTY AREA...

CITY           SKY/WX    TMP DP  RH WIND       PRES   REMARKS
N.P. AIRPORT   CLEAR     56  55  97 NW3       30.01R
N.P. SOUTHEAST   N/A     63  56  77 CALM        N/A
N.P. HILLCREST   N/A     61  55  79 CALM        N/A
$$

...SOME OBSERVATIONS FROM AROUND THE REGION...

CITY           SKY/WX    TMP DP  RH WIND       PRES   REMARKS
DENVER         PTCLDY    59  49  69 S9        30.18R
LIMON          PTCLDY    54  51  90 N6        30.19R
ASPEN          CLOUDY    53  39  59 S8        30.31R
LARAMIE        CLEAR     53  41  63 SE6       30.25R
CASPER         CLEAR     60  42  51 SW6       30.09R
CHEYENNE       CLEAR     61  45  55 S7        30.20S
SCOTTSBLUFF    CLEAR     60  53  77 SE3       30.08R
GRAND ISLAND   CLEAR     62  61  96 W6        29.93S
OMAHA          MOCLDY    71  64  78 NW10      29.84R
SIOUX FALLS    LGT RAIN  66  66 100 W7G17     29.76R FOG
PIERRE         CLEAR     60  54  80 W8        29.90R
RAPID CITY     CLEAR     59  51  75 CALM      30.00R
BISMARCK       CLOUDY    60  56  86 CALM      29.90S
KANSAS CITY    CLOUDY    72  70  93 S7        29.83F
HILL CITY      CLEAR     65  62  90 CALM      30.00R
WICHITA        CLOUDY    72  69  90 S5        29.91R
DODGE CITY     CLEAR     66  57  72 N7        30.00R
OKLAHOMA CITY  TSTM      72  68  87 SW14      29.91F
DALLAS         PTCLDY    88  70  55 S9        29.87R HX  93
AMARILLO       CLEAR     70  58  65 NE7       30.07R
$$




USA.gov is the U.S. government's official web portal to all federal, state and local government web resources and services.